This is the latest recevied weather packets stored in our database for station/object TONGUE. If no packets are shown the sender has not sent any weather packets the latest 1 day(s).
| Time | Temp. | Humidity | Pressure | Rain* | Wind** | Luminosity | Snow |
|---|---|---|---|---|---|---|---|
| 1778079003 | 12.22° C | 94% | 0 hPa | - | - | - | - |
| 1778075403 | 11.67° C | 94% | 0 hPa | - | - | - | - |
| 1778072403 | 11.67° C | 96% | 0 hPa | - | - | - | - |
| 1778071203 | 11.67° C | 98% | 0 hPa | - | - | - | - |
| 1778068204 | 11.67° C | 98% | 0 hPa | - | - | - | - |
| 1778066403 | 11.67° C | 99% | 0 hPa | - | - | - | - |
| 1778065803 | 11.67° C | 99% | 0 hPa | - | - | - | - |
| 1778062803 | 11.67° C | 94% | 0 hPa | - | - | - | - |
| 1778062203 | 11.67° C | 93% | 0 hPa | - | - | - | - |
| 1778059804 | 12.22° C | 97% | 0 hPa | - | - | - | - |
| 1778058603 | 11.67° C | 99% | 0 hPa | - | - | - | - |
| 1778053803 | 12.22° C | 98% | 0 hPa | - | - | - | - |
| 1778050203 | 12.22° C | 99% | 0 hPa | - | - | - | - |
| 1778041203 | 12.78° C | 94% | 0 hPa | - | - | - | - |
| 1778038203 | 12.78° C | 94% | 0 hPa | - | - | - | - |
| 1778037603 | 12.78° C | 94% | 0 hPa | - | - | - | - |
| 1778037003 | 13.33° C | 94% | 0 hPa | - | - | - | - |
| 1778033403 | 13.33° C | 91% | 0 hPa | - | - | - | - |
| 1778023804 | 13.89° C | 87% | 0 hPa | - | - | - | - |
| 1778004004 | 13.89° C | 85% | 0 hPa | - | - | - | - |
| 1778000409 | 13.33° C | 82% | 0 hPa | - | - | - | - |
* Rain since midnight (hover to see other rain measurements)
** Current wind speed in m/s (hover to see current wind gust speed)